Wetterdaten: Donnerstag, 02.04.2015
Datum Zeit Temp. A. Feuchte A. Luftdruck Regen Wind Richtung Richtung Sonnenschein ET UV Solar Taupunkt Windchill Windben Empfang
02.04.2015 00:00 0,8 C 81 % 1019,0 hPa 0,0 l/m 13,3 km/h (3 Bft) W-SW 255 0 min 0,000 mm 0,0 UV-I 0 W/m -2,1 C -5,0 C 19,8 km/h (3 Bft) 0,00 %
02.04.2015 00:15 0,6 C 82 % 1019,3 hPa 0,0 l/m 5,8 km/h (2 Bft) W-SW 255 0 min 0,000 mm 0,0 UV-I 0 W/m -2,1 C 0,6 C 11,9 km/h (2 Bft) 0,00 %
02.04.2015 00:30 0,5 C 83 % 1019,0 hPa 0,0 l/m 10,4 km/h (2 Bft) W-SW 250 0 min 0,000 mm 0,0 UV-I 0 W/m -2,0 C -3,2 C 15,8 km/h (3 Bft) 0,00 %
02.04.2015 00:45 0,7 C 83 % 1018,9 hPa 0,3 l/m 2,9 km/h (1 Bft) N-NW 339 0 min 0,000 mm 0,0 UV-I 0 W/m -1,8 C 0,7 C 4,0 km/h (1 Bft) 0,00 %
02.04.2015 01:00 0,9 C 83 % 1019,4 hPa 0,0 l/m 0,4 km/h (0 Bft) S 172 0 min 0,000 mm 0,0 UV-I 0 W/m -1,7 C 0,9 C 4,0 km/h (1 Bft) 0,00 %
02.04.2015 01:15 0,1 C 84 % 1019,4 hPa 0,0 l/m 2,9 km/h (1 Bft) W-NW 283 0 min 0,000 mm 0,0 UV-I 0 W/m -2,3 C 0,1 C 7,9 km/h (2 Bft) 0,00 %
02.04.2015 01:30 0,2 C 85 % 1019,3 hPa 0,0 l/m 9,4 km/h (2 Bft) W 270 0 min 0,000 mm 0,0 UV-I 0 W/m -2,0 C -2,7 C 15,8 km/h (3 Bft) 0,00 %
02.04.2015 01:45 0,2 C 85 % 1019,6 hPa 0,0 l/m 9,4 km/h (2 Bft) W 272 0 min 0,000 mm 0,0 UV-I 0 W/m -2,0 C -2,7 C 11,9 km/h (2 Bft) 0,00 %
02.04.2015 02:00 0,1 C 85 % 1019,4 hPa 0,0 l/m 17,3 km/h (3 Bft) W-SW 246 0 min 0,000 mm 0,0 UV-I 0 W/m -2,1 C -8,2 C 19,8 km/h (3 Bft) 0,00 %
02.04.2015 02:15 0,2 C 86 % 1019,3 hPa 0,0 l/m 8,3 km/h (2 Bft) W-SW 250 0 min 0,000 mm 0,0 UV-I 0 W/m -1,9 C -1,7 C 11,9 km/h (2 Bft) 0,00 %
02.04.2015 02:30 0,1 C 86 % 1019,0 hPa 0,0 l/m 5,4 km/h (1 Bft) SW 232 0 min 0,000 mm 0,0 UV-I 0 W/m -2,0 C 0,1 C 7,9 km/h (2 Bft) 0,00 %
02.04.2015 02:45 0,2 C 86 % 1018,6 hPa 0,0 l/m 3,2 km/h (1 Bft) O-SO 106 0 min 0,000 mm 0,0 UV-I 0 W/m -1,9 C 0,2 C 7,9 km/h (2 Bft) 0,00 %
02.04.2015 03:00 0,2 C 86 % 1018,4 hPa 0,0 l/m 0,7 km/h (0 Bft) SW 229 0 min 0,000 mm 0,0 UV-I 0 W/m -1,9 C 0,2 C 4,0 km/h (1 Bft) 0,00 %
02.04.2015 03:15 0,2 C 86 % 1018,0 hPa 0,0 l/m 0,4 km/h (0 Bft) W-SW 251 0 min 0,000 mm 0,0 UV-I 0 W/m -1,9 C 0,2 C 4,0 km/h (1 Bft) 0,00 %
02.04.2015 03:30 0,3 C 86 % 1017,7 hPa 0,0 l/m 2,9 km/h (1 Bft) SW 227 0 min 0,000 mm 0,0 UV-I 0 W/m -1,8 C 0,3 C 4,0 km/h (1 Bft) 0,00 %
02.04.2015 03:45 0,3 C 86 % 1017,5 hPa 0,0 l/m 0,4 km/h (0 Bft) NO 37 0 min 0,000 mm 0,0 UV-I 0 W/m -1,8 C 0,3 C 4,0 km/h (1 Bft) 0,00 %
02.04.2015 04:00 0,3 C 85 % 1017,3 hPa 0,0 l/m 1,8 km/h (1 Bft) SW 236 0 min 0,000 mm 0,0 UV-I 0 W/m -1,9 C 0,3 C 4,0 km/h (1 Bft) 0,00 %
02.04.2015 04:15 0,6 C 84 % 1016,6 hPa 0,0 l/m 4,3 km/h (1 Bft) NW 312 0 min 0,000 mm 0,0 UV-I 0 W/m -1,8 C 0,6 C 7,9 km/h (2 Bft) 0,00 %
02.04.2015 04:30 0,7 C 84 % 1016,4 hPa 0,0 l/m 4,3 km/h (1 Bft) W-NW 303 0 min 0,000 mm 0,0 UV-I 0 W/m -1,7 C 0,7 C 7,9 km/h (2 Bft) 0,00 %
02.04.2015 04:45 0,8 C 84 % 1016,3 hPa 0,0 l/m 6,5 km/h (2 Bft) W 268 0 min 0,000 mm 0,0 UV-I 0 W/m -1,6 C 0,7 C 11,9 km/h (2 Bft) 0,00 %
02.04.2015 05:00 0,9 C 84 % 1015,9 hPa 0,3 l/m 2,9 km/h (1 Bft) S-SW 208 0 min 0,000 mm 0,0 UV-I 0 W/m -1,5 C 0,9 C 4,0 km/h (1 Bft) 0,00 %
02.04.2015 05:15 1,0 C 84 % 1015,5 hPa 0,3 l/m 2,9 km/h (1 Bft) O-NO 68 0 min 0,000 mm 0,0 UV-I 0 W/m -1,4 C 1,0 C 7,9 km/h (2 Bft) 0,00 %
02.04.2015 05:30 1,1 C 84 % 1015,2 hPa 0,0 l/m 4,3 km/h (1 Bft) NW 313 0 min 0,000 mm 0,0 UV-I 0 W/m -1,3 C 1,1 C 7,9 km/h (2 Bft) 0,00 %
02.04.2015 05:45 1,1 C 84 % 1015,0 hPa 0,3 l/m 3,2 km/h (1 Bft) NO 55 0 min 0,000 mm 0,0 UV-I 0 W/m -1,3 C 1,1 C 7,9 km/h (2 Bft) 0,00 %
02.04.2015 06:00 1,2 C 83 % 1014,8 hPa 0,3 l/m 2,9 km/h (1 Bft) W-SW 253 0 min 0,000 mm 0,0 UV-I 0 W/m -1,4 C 1,2 C 4,0 km/h (1 Bft) 0,00 %
02.04.2015 06:15 1,3 C 83 % 1014,7 hPa 0,0 l/m 7,2 km/h (2 Bft) SW 230 0 min 0,000 mm 0,0 UV-I 0 W/m -1,3 C 0,5 C 11,9 km/h (2 Bft) 0,00 %
02.04.2015 06:30 1,3 C 83 % 1014,5 hPa 0,3 l/m 0,4 km/h (0 Bft) NO 45 0 min 0,000 mm 0,0 UV-I 0 W/m -1,3 C 1,3 C 4,0 km/h (1 Bft) 0,00 %
02.04.2015 06:45 1,3 C 83 % 1014,5 hPa 0,3 l/m 0,0 km/h (0 Bft) S-SW 201 0 min 0,000 mm 0,0 UV-I 0 W/m -1,3 C 1,3 C 0,0 km/h (0 Bft) 0,00 %
02.04.2015 07:00 1,3 C 83 % 1014,7 hPa 0,3 l/m 7,2 km/h (2 Bft) W-SW 252 0 min 0,000 mm 0,0 UV-I 0 W/m -1,3 C 0,5 C 11,9 km/h (2 Bft) 0,00 %
02.04.2015 07:15 0,9 C 83 % 1014,3 hPa 0,3 l/m 0,4 km/h (0 Bft) NW 326 0 min 0,000 mm 0,0 UV-I 6 W/m -1,7 C 0,9 C 4,0 km/h (1 Bft) 0,00 %
02.04.2015 07:30 1,1 C 84 % 1014,1 hPa 0,3 l/m 2,2 km/h (1 Bft) W-SW 257 0 min 0,000 mm 0,0 UV-I 21 W/m -1,3 C 1,1 C 4,0 km/h (1 Bft) 0,00 %
02.04.2015 07:45 1,2 C 84 % 1013,7 hPa 0,3 l/m 9,7 km/h (2 Bft) S 188 0 min 0,000 mm 0,0 UV-I 23 W/m -1,2 C -1,9 C 15,8 km/h (3 Bft) 0,00 %
02.04.2015 08:00 1,4 C 83 % 1013,5 hPa 0,3 l/m 2,9 km/h (1 Bft) S 189 0 min 0,000 mm 0,0 UV-I 20 W/m -1,2 C 1,4 C 11,9 km/h (2 Bft) 0,00 %
02.04.2015 08:15 1,5 C 82 % 1013,0 hPa 0,3 l/m 7,2 km/h (2 Bft) W-SW 255 0 min 0,000 mm 1,0 UV-I 43 W/m -1,2 C 0,7 C 11,9 km/h (2 Bft) 0,00 %
02.04.2015 08:30 1,6 C 82 % 1012,8 hPa 0,3 l/m 0,4 km/h (0 Bft) NO 51 0 min 0,000 mm 1,0 UV-I 56 W/m -1,1 C 1,6 C 4,0 km/h (1 Bft) 0,00 %
02.04.2015 08:45 1,8 C 82 % 1012,5 hPa 0,3 l/m 8,3 km/h (2 Bft) W-SW 253 0 min 0,000 mm 1,0 UV-I 83 W/m -0,9 C -0,0 C 11,9 km/h (2 Bft) 0,00 %
02.04.2015 09:00 2,1 C 80 % 1012,0 hPa 0,3 l/m 8,3 km/h (2 Bft) S-SW 195 0 min 0,000 mm 1,0 UV-I 118 W/m -1,0 C 0,3 C 11,9 km/h (2 Bft) 0,00 %
02.04.2015 09:15 2,3 C 80 % 1012,0 hPa 0,3 l/m 4,0 km/h (1 Bft) W-NW 296 0 min 0,000 mm 1,0 UV-I 115 W/m -0,8 C 2,3 C 7,9 km/h (2 Bft) 0,00 %
02.04.2015 09:30 2,4 C 83 % 1011,4 hPa 0,0 l/m 3,2 km/h (1 Bft) SW 217 0 min 0,000 mm 1,0 UV-I 124 W/m -0,2 C 2,4 C 7,9 km/h (2 Bft) 0,00 %
02.04.2015 09:45 2,7 C 82 % 1011,3 hPa 0,0 l/m 0,0 km/h (0 Bft) NO 36 0 min 0,000 mm 1,0 UV-I 124 W/m -0,1 C 2,7 C 0,0 km/h (0 Bft) 0,00 %
02.04.2015 10:00 2,8 C 82 % 1011,0 hPa 0,0 l/m 10,4 km/h (2 Bft) W-SW 254 0 min 0,000 mm 1,0 UV-I 128 W/m 0,0 C -0,7 C 15,8 km/h (3 Bft) 0,00 %
02.04.2015 10:15 2,7 C 83 % 1010,2 hPa 0,0 l/m 2,9 km/h (1 Bft) W-SW 237 0 min 0,000 mm 1,0 UV-I 121 W/m 0,1 C 2,7 C 4,0 km/h (1 Bft) 0,00 %
02.04.2015 10:30 2,9 C 83 % 1010,2 hPa 0,0 l/m 10,4 km/h (2 Bft) W-NW 296 0 min 0,000 mm 2,0 UV-I 163 W/m 0,3 C -0,5 C 19,8 km/h (3 Bft) 0,00 %
02.04.2015 10:45 3,0 C 83 % 1009,4 hPa 0,0 l/m 5,8 km/h (2 Bft) NW 312 0 min 0,000 mm 2,0 UV-I 155 W/m 0,4 C 3,0 C 7,9 km/h (2 Bft) 0,00 %
02.04.2015 11:00 3,5 C 82 % 1009,0 hPa 0,0 l/m 4,3 km/h (1 Bft) W-SW 252 0 min 0,000 mm 3,0 UV-I 249 W/m 0,7 C 3,5 C 7,9 km/h (2 Bft) 0,00 %
02.04.2015 11:15 4,0 C 81 % 1008,5 hPa 0,0 l/m 7,2 km/h (2 Bft) W-SW 255 0 min 0,000 mm 2,0 UV-I 271 W/m 1,0 C 3,3 C 11,9 km/h (2 Bft) 0,00 %
02.04.2015 11:30 3,7 C 81 % 1008,2 hPa 0,0 l/m 9,0 km/h (2 Bft) W-SW 252 0 min 0,000 mm 1,0 UV-I 159 W/m 0,7 C 1,4 C 15,8 km/h (3 Bft) 0,00 %
02.04.2015 11:45 3,4 C 81 % 1007,4 hPa 0,0 l/m 12,2 km/h (2 Bft) W-SW 256 0 min 0,000 mm 2,0 UV-I 159 W/m 0,5 C -1,2 C 19,8 km/h (3 Bft) 0,00 %
02.04.2015 12:00 3,7 C 81 % 1006,6 hPa 0,0 l/m 14,8 km/h (3 Bft) SW 224 0 min 0,000 mm 2,0 UV-I 196 W/m 0,7 C -2,4 C 19,8 km/h (3 Bft) 0,00 %
02.04.2015 12:15 4,2 C 81 % 1006,4 hPa 0,0 l/m 19,1 km/h (3 Bft) W-SW 257 0 min 0,000 mm 2,0 UV-I 222 W/m 1,2 C -3,8 C 28,1 km/h (4 Bft) 0,00 %
02.04.2015 12:30 4,5 C 79 % 1006,0 hPa 0,0 l/m 4,0 km/h (1 Bft) NO 50 0 min 0,000 mm 2,0 UV-I 208 W/m 1,2 C 4,5 C 7,9 km/h (2 Bft) 0,00 %
02.04.2015 12:45 4,6 C 79 % 1005,8 hPa 0,0 l/m 13,0 km/h (3 Bft) W-SW 256 0 min 0,000 mm 2,0 UV-I 189 W/m 1,3 C -0,3 C 19,8 km/h (3 Bft) 0,00 %
02.04.2015 13:00 4,5 C 79 % 1005,6 hPa 0,0 l/m 11,9 km/h (2 Bft) W-SW 257 0 min 0,000 mm 2,0 UV-I 136 W/m 1,2 C 0,2 C 15,8 km/h (3 Bft) 0,00 %
02.04.2015 13:15 4,7 C 80 % 1005,4 hPa 0,0 l/m 8,3 km/h (2 Bft) W-SW 252 0 min 0,000 mm 2,0 UV-I 166 W/m 1,6 C 3,0 C 15,8 km/h (3 Bft) 0,00 %
02.04.2015 13:30 4,7 C 80 % 1005,4 hPa 0,0 l/m 18,0 km/h (3 Bft) W-SW 254 0 min 0,000 mm 1,0 UV-I 150 W/m 1,6 C -2,7 C 24,1 km/h (4 Bft) 0,00 %
02.04.2015 13:45 4,6 C 81 % 1005,4 hPa 0,0 l/m 9,4 km/h (2 Bft) W-SW 255 0 min 0,000 mm 1,0 UV-I 132 W/m 1,6 C 2,1 C 11,9 km/h (2 Bft) 0,00 %
02.04.2015 14:00 4,5 C 81 % 1005,3 hPa 0,0 l/m 13,0 km/h (3 Bft) W-NW 286 0 min 0,000 mm 1,0 UV-I 95 W/m 1,5 C -0,4 C 15,8 km/h (3 Bft) 0,00 %
02.04.2015 14:15 4,5 C 83 % 1005,5 hPa 0,3 l/m 0,7 km/h (0 Bft) S 173 0 min 0,000 mm 1,0 UV-I 79 W/m 1,9 C 4,5 C 4,0 km/h (1 Bft) 0,00 %
02.04.2015 14:30 4,6 C 84 % 1005,1 hPa 0,3 l/m 4,0 km/h (1 Bft) S 184 0 min 0,000 mm 1,0 UV-I 82 W/m 2,1 C 4,6 C 7,9 km/h (2 Bft) 0,00 %
02.04.2015 14:45 4,7 C 84 % 1005,3 hPa 0,3 l/m 2,2 km/h (1 Bft) S 188 0 min 0,000 mm 1,0 UV-I 80 W/m 2,2 C 4,7 C 4,0 km/h (1 Bft) 0,00 %
02.04.2015 15:00 4,7 C 84 % 1005,6 hPa 0,6 l/m 13,0 km/h (3 Bft) W-SW 251 0 min 0,000 mm 1,0 UV-I 62 W/m 2,2 C -0,2 C 15,8 km/h (3 Bft) 0,00 %
02.04.2015 15:15 4,3 C 84 % 1005,8 hPa 0,6 l/m 14,4 km/h (3 Bft) W-NW 298 0 min 0,000 mm 0,0 UV-I 34 W/m 1,8 C -1,5 C 24,1 km/h (4 Bft) 0,00 %
02.04.2015 15:30 3,7 C 85 % 1006,3 hPa 0,6 l/m 7,9 km/h (2 Bft) S 172 0 min 0,000 mm 1,0 UV-I 42 W/m 1,4 C 2,3 C 11,9 km/h (2 Bft) 0,00 %
02.04.2015 15:45 3,8 C 84 % 1006,5 hPa 0,3 l/m 10,8 km/h (2 Bft) W-NW 286 0 min 0,000 mm 1,0 UV-I 47 W/m 1,4 C 0,2 C 19,8 km/h (3 Bft) 0,00 %
02.04.2015 16:00 4,1 C 82 % 1006,4 hPa 0,0 l/m 10,4 km/h (2 Bft) NW 318 0 min 0,000 mm 1,0 UV-I 112 W/m 1,3 C 0,8 C 15,8 km/h (3 Bft) 0,00 %
02.04.2015 16:15 4,4 C 80 % 1006,9 hPa 0,0 l/m 7,2 km/h (2 Bft) SW 220 0 min 0,000 mm 1,0 UV-I 135 W/m 1,3 C 3,7 C 11,9 km/h (2 Bft) 0,00 %
02.04.2015 16:30 4,7 C 77 % 1007,5 hPa 0,0 l/m 6,5 km/h (2 Bft) S 174 0 min 0,000 mm 1,0 UV-I 166 W/m 1,0 C 4,6 C 11,9 km/h (2 Bft) 0,00 %
02.04.2015 16:45 4,4 C 80 % 1008,5 hPa 0,0 l/m 17,3 km/h (3 Bft) W-SW 256 0 min 0,000 mm 1,0 UV-I 38 W/m 1,3 C -2,8 C 24,1 km/h (4 Bft) 0,00 %
02.04.2015 17:00 3,6 C 73 % 1009,1 hPa 0,0 l/m 6,5 km/h (2 Bft) W-NW 295 0 min 0,000 mm 1,0 UV-I 149 W/m -0,8 C 3,5 C 15,8 km/h (3 Bft) 0,00 %
02.04.2015 17:15 3,8 C 72 % 1009,5 hPa 0,0 l/m 0,4 km/h (0 Bft) O 91 0 min 0,000 mm 1,0 UV-I 96 W/m -0,8 C 3,8 C 4,0 km/h (1 Bft) 0,00 %
02.04.2015 17:30 3,6 C 72 % 1010,2 hPa 0,0 l/m 10,4 km/h (2 Bft) W-SW 253 0 min 0,000 mm 1,0 UV-I 110 W/m -1,0 C 0,2 C 11,9 km/h (2 Bft) 0,00 %
02.04.2015 17:45 4,2 C 69 % 1010,5 hPa 0,0 l/m 7,9 km/h (2 Bft) W-SW 251 15 min 0,000 mm 1,0 UV-I 457 W/m -1,0 C 2,8 C 11,9 km/h (2 Bft) 0,00 %
02.04.2015 18:00 4,7 C 66 % 1010,9 hPa 0,0 l/m 4,7 km/h (1 Bft) W-SW 252 15 min 0,000 mm 0,0 UV-I 252 W/m -1,1 C 4,7 C 7,9 km/h (2 Bft) 0,00 %
02.04.2015 18:15 4,0 C 71 % 1011,6 hPa 0,0 l/m 7,9 km/h (2 Bft) W-NW 297 15 min 0,000 mm 0,0 UV-I 345 W/m -0,8 C 2,6 C 11,9 km/h (2 Bft) 0,00 %
02.04.2015 18:30 2,3 C 73 % 1012,7 hPa 0,0 l/m 0,7 km/h (0 Bft) W-SW 255 0 min 0,000 mm 0,0 UV-I 4 W/m -2,0 C 2,3 C 4,0 km/h (1 Bft) 0,00 %
02.04.2015 18:45 2,0 C 77 % 1013,2 hPa 0,3 l/m 0,7 km/h (0 Bft) N-NW 336 0 min 0,000 mm 0,0 UV-I 6 W/m -1,6 C 2,0 C 4,0 km/h (1 Bft) 0,00 %
02.04.2015 19:00 1,6 C 79 % 1013,5 hPa 0,3 l/m 2,9 km/h (1 Bft) SW 217 0 min 0,000 mm 0,0 UV-I 4 W/m -1,6 C 1,6 C 4,0 km/h (1 Bft) 0,00 %
02.04.2015 19:15 1,6 C 77 % 1014,0 hPa 0,0 l/m 3,2 km/h (1 Bft) S-SW 211 0 min 0,000 mm 0,0 UV-I 0 W/m -2,0 C 1,6 C 4,0 km/h (1 Bft) 0,00 %
02.04.2015 19:30 1,5 C 78 % 1014,3 hPa 0,3 l/m 9,4 km/h (2 Bft) W-SW 253 0 min 0,000 mm 0,0 UV-I 0 W/m -1,9 C -1,3 C 11,9 km/h (2 Bft) 0,00 %
02.04.2015 19:45 1,5 C 74 % 1014,6 hPa 0,0 l/m 8,3 km/h (2 Bft) W-SW 252 0 min 0,000 mm 0,0 UV-I 0 W/m -2,6 C -0,3 C 11,9 km/h (2 Bft) 0,00 %
02.04.2015 20:00 1,4 C 72 % 1014,8 hPa 0,0 l/m 11,5 km/h (2 Bft) W 281 0 min 0,000 mm 0,0 UV-I 0 W/m -3,1 C -3,0 C 15,8 km/h (3 Bft) 0,00 %
02.04.2015 20:15 1,2 C 71 % 1015,5 hPa 0,0 l/m 1,8 km/h (1 Bft) SO 139 0 min 0,000 mm 0,0 UV-I 0 W/m -3,5 C 1,2 C 4,0 km/h (1 Bft) 0,00 %
02.04.2015 20:30 1,4 C 69 % 1015,9 hPa 0,0 l/m 10,4 km/h (2 Bft) W-SW 256 0 min 0,000 mm 0,0 UV-I 0 W/m -3,7 C -2,2 C 15,8 km/h (3 Bft) 0,00 %
02.04.2015 20:45 1,6 C 68 % 1016,1 hPa 0,0 l/m 2,9 km/h (1 Bft) W-SW 252 0 min 0,000 mm 0,0 UV-I 0 W/m -3,7 C 1,6 C 4,0 km/h (1 Bft) 0,00 %
02.04.2015 21:00 1,8 C 69 % 1016,1 hPa 0,0 l/m 7,2 km/h (2 Bft) W-SW 255 0 min 0,000 mm 0,0 UV-I 0 W/m -3,3 C 1,0 C 7,9 km/h (2 Bft) 0,00 %
02.04.2015 21:15 1,8 C 69 % 1016,2 hPa 0,0 l/m 13,0 km/h (3 Bft) W-SW 256 0 min 0,000 mm 0,0 UV-I 0 W/m -3,3 C -3,6 C 15,8 km/h (3 Bft) 0,00 %
02.04.2015 21:30 1,6 C 69 % 1016,7 hPa 0,0 l/m 2,9 km/h (1 Bft) W-NW 290 0 min 0,000 mm 0,0 UV-I 0 W/m -3,5 C 1,6 C 4,0 km/h (1 Bft) 0,00 %
02.04.2015 21:45 1,4 C 69 % 1017,1 hPa 0,0 l/m 13,0 km/h (3 Bft) W-SW 255 0 min 0,000 mm 0,0 UV-I 0 W/m -3,7 C -4,1 C 15,8 km/h (3 Bft) 0,00 %
02.04.2015 22:00 1,3 C 67 % 1017,4 hPa 0,0 l/m 5,4 km/h (1 Bft) S-SW 194 0 min 0,000 mm 0,0 UV-I 0 W/m -4,1 C 1,3 C 11,9 km/h (2 Bft) 0,00 %
02.04.2015 22:15 1,2 C 66 % 1017,9 hPa 0,0 l/m 1,8 km/h (1 Bft) S 175 0 min 0,000 mm 0,0 UV-I 0 W/m -4,4 C 1,2 C 4,0 km/h (1 Bft) 0,00 %
02.04.2015 22:30 1,1 C 67 % 1018,0 hPa 0,0 l/m 11,5 km/h (2 Bft) W-SW 255 0 min 0,000 mm 0,0 UV-I 0 W/m -4,3 C -3,4 C 15,8 km/h (3 Bft) 0,00 %
02.04.2015 22:45 1,0 C 69 % 1018,1 hPa 0,0 l/m 1,8 km/h (1 Bft) S-SW 204 0 min 0,000 mm 0,0 UV-I 0 W/m -4,0 C 1,0 C 4,0 km/h (1 Bft) 0,00 %
02.04.2015 23:00 1,1 C 70 % 1018,0 hPa 0,0 l/m 2,9 km/h (1 Bft) W-SW 251 0 min 0,000 mm 0,0 UV-I 0 W/m -3,7 C 1,1 C 7,9 km/h (2 Bft) 0,00 %
02.04.2015 23:15 1,0 C 75 % 1018,4 hPa 0,0 l/m 9,7 km/h (2 Bft) S-SW 209 0 min 0,000 mm 0,0 UV-I 0 W/m -2,9 C -2,1 C 11,9 km/h (2 Bft) 0,00 %
02.04.2015 23:30 0,5 C 81 % 1018,3 hPa 0,0 l/m 9,7 km/h (2 Bft) W-SW 252 0 min 0,000 mm 0,0 UV-I 0 W/m -2,4 C -2,6 C 15,8 km/h (3 Bft) 0,00 %
02.04.2015 23:45 0,3 C 81 % 1018,9 hPa 0,0 l/m 10,4 km/h (2 Bft) W-SW 252 0 min 0,000 mm 0,0 UV-I 0 W/m -2,6 C -3,4 C 15,8 km/h (3 Bft) 0,00 %
_ Min-Zeit 01:15 18:00 14:30 - 06:45 - - - - - - 22:15 02:00 06:45 00:00
Minimum _ 0,1 C 66 % 1005,1 hPa - 0,0 km/h (0 Bft) - - - - - - -4,4 C -8,2 C 0,0 km/h (0 Bft) 0,00 %
_ Max-Zeit 13:15 02:15 01:45 15:00 12:15 - - 17:45 00:00 11:00 17:45 14:45 14:45 12:15 00:00
Maximum _ 4,7 C 86 % 1019,6 hPa 0,6 l/m 19,1 km/h
W-SW (3 Bft)
- - 15 min 0,000 mm 3,0 UV-I 457 W/m 2,2 C 4,7 C 28,1 km/h
W-SW (4 Bft)
0,00 %
Durchschnitt _ 2,2 C 80 % 1013,0 hPa #9,0 l/m 6,5 km/h (2 Bft) W-SW - #45 min. #0,000 mm 1,3 UV-I 124 W/m -1,0 C 0,5 C 10,6 km/h (2 Bft) 0,00 %